ONEWEB-0399, 50479

Orbit data source: Space-Track

ONEWEB-0399, 50479 is a payload satellite owned by One Web (NAA) (UK) in LEO that was launched on Mon, 27 Dec 2021 UTC via a SOYUZ-2-1B launch vehicle from the Tyuratam Missile And Space Complex (TTMTR). Payload-class satellites include a variety of spacecraft equipped with specific instruments for various scientific and technological missions. These include communications satellites like Starlink; space stations such as the ISS; scientific satellites like the Hubble; Earth observation satellites from companies like Planet Labs, Umbra, and HawkEye 360; GPS; miniature CubeSats for education and research; and military/defense satellites.

Loading next visibility...
Identifier
50479, 2021-132L
Orbit
LEO
Country
Flag of UKUK
Related business
Manufacturer
One Web
Mission
Operational Commercial Communications
Bus & Motor
ARROW, Unknown motor
Mass
148 kg wet, ~140 kg dry
Launch date (UTC)
2021-12-27 (4 years ago)
Launch vehicle
SOYUZ-2-1B
Launch site
Tyuratam Missile And Space Complex (TTMTR)
Object type
Payload
Rocket body
Debris
Shape & HBR
Trap Box + 2 Pan, 6.7 m
Radar Cross Section
3.464 m², Large (>1 m²)

Expand to show TLE details & history
Last TLE update: 2 days ago

TLE from 2 days ago
0 ONEWEB-0399
1 50479U 21132L   26171.32573584  .00000255  00000-0  68468-3 0  9995
2 50479  87.8891  20.4441 0002092  73.8336 286.3022 13.11417974216017
Epoch: 2026-06-20T07:49Z
TLE epoch observation values (Epoch: 2026-06-20T07:49:03.576Z)
Latitude
-0.00003°
Longitude
-5.36277°
Altitude
1,220.122 km
Speed
7.244 km/s
True Right ascension
01h 21m 46s
True Declination
0° 00' 00"
Sunlit
Object was in daylight at epoch
Visualization orbit readout
Latitude
Unknown
Longitude
Unknown
Altitude
Unknown
Speed
Unknown
Apparent Right ascension
Unknown
Apparent Declination
Unknown
Sunlit
N/A
Visualization observer readout
Local Sidereal Time
21:34:26
Azimuth
Unknown
Elevation
Unknown
Doppler factor
Unknown
Orbital elements
Apogee altitude
1,216.385 km
Perigee altitude
1,213.208 km
Semi-major axis
7,592.934 km
Eccentricity
0.00021
Inclination
87.8891°
RAAN
20.4441°
Arg. of periapsis
73.8336°
True anomaly
286.27919°
Mean anomaly
286.3022°
Eccentric anomaly
286.29069°
Mean motion
3.28041 °/min
Orbital period
109.74 mins
BSTAR
0.00068468
Loading maneuver chart data...
Computing Atmospheric mass density...
Loading historical data...
Loading historical data...
Loading historical data...
Loading historical data...
Loading historical data...
Loading historical data...
Loading historical data...

Documentation

Showing up to 5 results
|